Pecos, TX

10:48 PM CDT on October 21, 2017 (GMT -0500)
Pecos Municipal

Weather History for KPEQ - April, 2014

Change the Weather History Date:

Tuesday, April 1, 2014

  Actual Average Record
Temperature  
Mean Temperature 65 °F -  
Max Temperature 90 °F 81 °F 98 °F (1986)
Min Temperature 40 °F 42 °F 24 °F (1976)
Growing Degree Days 15 (Base 50)    
Moisture  
Dew Point 20 °F    
Average Humidity 19    
Maximum Humidity 36    
Minimum Humidity 10    
Precipitation  
Precipitation 0.00 in - - ()
Sea Level Pressure  
Sea Level Pressure 29.87 in    
Wind  
Wind Speed 7 mph (SW)    
Max Wind Speed 22 mph    
Max Gust Speed 31 mph    
Visibility 10 miles    
Events      
Averages and records for this station are not official NWS values.
T = Trace of Precipitation, MM = Missing Value Source: NWS Daily Summary

Daily Weather History Graph

Daily Weather History Graph

Search for Another Location

Airport or City:

Trip Planner

Search our weather history database for the weather conditions in past years. The results will help you decide how hot, cold, wet, or windy it might be!

Date:

Astronomy

Apr. 01, 2014 Rise Set
Actual Time 7:42 AM CDT 8:13 PM CDT
Civil Twilight 7:18 AM CDT 8:37 PM CDT
Nautical Twilight 6:49 AM CDT 9:06 PM CDT
Astronomical Twilight 6:20 AM CDT 9:35 PM CDT
Moon 8:54 AM CDT (4/1) 10:29 PM CDT (4/1)
Length of Visible Light 13h 19m
Length of Day
12h 30m
Waxing Crescent, 5% of the Moon is Illuminated
Apr 1
Waxing Crescent
Apr 7
First Quarter
Apr 15
Full
Apr 22
Last Quarter
Apr 29
New

Hourly Weather History & Observations

Time (CDT) Temp. Windchill Dew Point Humidity Pressure Visibility Wind Dir Wind Speed Gust Speed Precip Events Conditions
12:15 AM 55.4 °F - 13.6 °F 19% 29.91 in 10.0 mi SSW 9.2 mph - N/A   Clear
12:35 AM 56.3 °F - 15.8 °F 20% 29.91 in 10.0 mi SW 8.1 mph - N/A   Clear
12:55 AM 54.5 °F - 13.6 °F 20% 29.91 in 10.0 mi SSW 5.8 mph - N/A   Clear
1:15 AM 52.0 °F - 13.1 °F 21% 29.92 in 10.0 mi SSE 8.1 mph - N/A   Clear
1:35 AM 50.4 °F - 13.3 °F 23% 29.92 in 10.0 mi SW 5.8 mph - N/A   Clear
1:55 AM 49.6 °F - 15.3 °F 25% 29.92 in 10.0 mi SW 8.1 mph - N/A   Clear
2:15 AM 48.7 °F - 15.4 °F 27% 29.92 in 10.0 mi SSW 6.9 mph - N/A   Clear
2:35 AM 48.2 °F - 16.7 °F 29% 29.92 in 10.0 mi SW 8.1 mph - N/A   Clear
2:55 AM 48.2 °F - 14.9 °F 26% 29.93 in 10.0 mi SW 4.6 mph - N/A   Clear
3:15 AM 47.5 °F - 15.1 °F 27% 29.92 in 10.0 mi Calm Calm - N/A   Clear
3:35 AM 47.5 °F - 15.3 °F 28% 29.92 in 10.0 mi Calm Calm - N/A   Clear
3:55 AM 46.9 °F - 15.4 °F 28% 29.91 in 10.0 mi Calm Calm - N/A   Clear
4:15 AM 48.0 °F - 14.9 °F 27% 29.91 in 10.0 mi Calm Calm - N/A   Clear
4:35 AM 48.2 °F - 14.9 °F 26% 29.91 in 10.0 mi Calm Calm - N/A   Clear
4:55 AM 45.9 °F 44.6 °F 16.7 °F 31% 29.91 in 10.0 mi NW 3.5 mph - N/A   Clear
5:15 AM 46.2 °F - 15.6 °F 29% 29.91 in 10.0 mi Calm Calm - N/A   Clear
5:35 AM 47.3 °F - 15.6 °F 28% 29.91 in 10.0 mi Calm Calm - N/A   Clear
5:55 AM 41.7 °F 38.0 °F 14.2 °F 33% 29.92 in 10.0 mi ESE 5.8 mph - N/A   Clear
6:15 AM 40.5 °F 35.8 °F 13.1 °F 33% 29.92 in 10.0 mi ESE 6.9 mph - N/A   Clear
6:35 AM 40.1 °F 34.7 °F 13.1 °F 33% 29.92 in 10.0 mi SE 8.1 mph - N/A   Clear
6:55 AM 41.2 °F 38.2 °F 13.5 °F 32% 29.92 in 10.0 mi South 4.6 mph - N/A   Clear
7:15 AM 42.4 °F 39.6 °F 14.0 °F 32% 29.92 in 10.0 mi South 4.6 mph - N/A   Clear
7:35 AM 42.8 °F 39.3 °F 14.7 °F 32% 29.93 in 10.0 mi SSW 5.8 mph - N/A   Clear
7:55 AM 42.8 °F 38.6 °F 15.6 °F 33% 29.93 in 10.0 mi SSW 6.9 mph - N/A   Clear
8:15 AM 44.1 °F 40.8 °F 17.4 °F 34% 29.94 in 3.0 mi SSW 5.8 mph - N/A   Haze
8:35 AM 44.6 °F 43.1 °F 18.7 °F 36% 29.95 in 5.0 mi South 3.5 mph - N/A   Haze
8:55 AM 50.0 °F - 18.9 °F 29% 29.95 in 4.0 mi Calm Calm - N/A   Haze
9:15 AM 54.1 °F - 20.7 °F 27% 29.96 in 10.0 mi Calm Calm - N/A   Clear
9:35 AM 58.1 °F - 19.9 °F 23% 29.95 in 10.0 mi West 4.6 mph - N/A   Clear
9:55 AM 61.5 °F - 21.0 °F 21% 29.95 in 10.0 mi Calm Calm - N/A   Clear
10:15 AM 64.4 °F - 25.5 °F 23% 29.96 in 10.0 mi Calm Calm - N/A   Clear
10:35 AM 67.8 °F - 23.4 °F 19% 29.95 in 10.0 mi Calm Calm - N/A   Clear
10:55 AM 70.5 °F - 24.1 °F 17% 29.95 in 10.0 mi Calm Calm - N/A   Clear
11:15 AM 72.7 °F - 24.4 °F 16% 29.95 in 10.0 mi Calm Calm - N/A   Clear
11:35 AM 75.6 °F - 25.7 °F 16% 29.95 in 10.0 mi Calm Calm - N/A   Clear
11:55 AM 78.3 °F - 26.2 °F 15% 29.93 in 10.0 mi Calm Calm - N/A   Clear
12:15 PM 80.6 °F - 25.2 °F 13% 29.93 in 10.0 mi WNW 5.8 mph - N/A   Clear
12:35 PM 81.7 °F - 25.7 °F 13% 29.91 in 10.0 mi Calm Calm - N/A   Clear
12:55 PM 82.8 °F - 26.1 °F 13% 29.90 in 10.0 mi West 8.1 mph - N/A   Clear
1:15 PM 84.4 °F - 25.9 °F 12% 29.89 in 10.0 mi WNW 8.1 mph 16.1 mph N/A   Clear
1:35 PM 86.7 °F - 26.6 °F 11% 29.88 in 10.0 mi West 11.5 mph 16.1 mph N/A   Clear
1:55 PM 86.9 °F - 26.6 °F 11% 29.87 in 10.0 mi WSW 11.5 mph 24.2 mph N/A   Clear
2:15 PM 87.4 °F - 26.6 °F 11% 29.85 in 10.0 mi West 15.0 mph 20.7 mph N/A   Clear
2:35 PM 87.6 °F - 26.4 °F 11% 29.84 in 10.0 mi SW 15.0 mph 21.9 mph N/A   Clear
2:55 PM 88.2 °F - 26.8 °F 11% 29.84 in 10.0 mi West 16.1 mph 21.9 mph N/A   Clear
3:15 PM 88.3 °F - 26.4 °F 11% 29.83 in 10.0 mi WSW 19.6 mph 24.2 mph N/A   Clear
3:35 PM 88.2 °F - 26.4 °F 11% 29.81 in 10.0 mi WSW 21.9 mph 31.1 mph N/A   Clear
3:55 PM 88.2 °F - 25.9 °F 10% 29.80 in 10.0 mi SW 15.0 mph 26.5 mph N/A   Clear
4:15 PM 89.1 °F - 26.4 °F 10% 29.79 in 10.0 mi WSW 16.1 mph 25.3 mph N/A   Clear
4:35 PM 89.8 °F - 26.4 °F 10% 29.79 in 10.0 mi WSW 19.6 mph 26.5 mph N/A   Clear
4:55 PM 88.9 °F - 26.1 °F 10% 29.77 in 7.0 mi WSW 12.7 mph 27.6 mph N/A   Clear
5:15 PM 90.5 °F - 26.6 °F 10% 29.77 in 10.0 mi WSW 17.3 mph 24.2 mph N/A   Clear
5:35 PM 89.4 °F - 26.4 °F 10% 29.77 in 10.0 mi WSW 13.8 mph 17.3 mph N/A   Clear
5:55 PM 88.0 °F - 25.7 °F 10% 29.76 in 10.0 mi WSW 12.7 mph 19.6 mph N/A   Clear
6:15 PM 87.8 °F - 25.5 °F 10% 29.76 in 10.0 mi WSW 13.8 mph 21.9 mph N/A   Clear
6:35 PM 88.9 °F - 25.7 °F 10% 29.76 in 10.0 mi West 12.7 mph - N/A   Clear
6:55 PM 88.2 °F - 25.0 °F 10% 29.76 in 10.0 mi West 15.0 mph 19.6 mph N/A   Clear
7:15 PM 88.0 °F - 24.6 °F 10% 29.76 in 10.0 mi WSW 15.0 mph 20.7 mph N/A   Clear
7:35 PM 86.9 °F - 23.9 °F 10% 29.76 in 10.0 mi WSW 12.7 mph 18.4 mph N/A   Clear
7:55 PM 84.4 °F - 23.0 °F 11% 29.76 in 10.0 mi West 9.2 mph - N/A   Clear
8:15 PM 79.9 °F - 22.8 °F 12% 29.76 in 10.0 mi WNW 9.2 mph - N/A   Clear
8:35 PM 76.5 °F - 21.2 °F 13% 29.77 in 10.0 mi West 6.9 mph - N/A   Clear
8:55 PM 74.3 °F - 20.8 °F 13% 29.77 in 10.0 mi WNW 4.6 mph - N/A   Clear
9:15 PM 73.6 °F - 20.8 °F 14% 29.77 in 10.0 mi Calm Calm - N/A   Clear
9:35 PM 69.3 °F - 19.0 °F 15% 29.78 in 10.0 mi NE 3.5 mph - N/A   Clear
9:55 PM 72.3 °F - 19.6 °F 14% 29.79 in 10.0 mi ENE 4.6 mph - N/A   Clear
10:15 PM 68.0 °F - 18.5 °F 15% 29.79 in 10.0 mi East 4.6 mph - N/A   Clear
10:35 PM 66.7 °F - 18.0 °F 15% 29.79 in 10.0 mi ESE 4.6 mph - N/A   Clear
10:55 PM 65.1 °F - 17.4 °F 16% 29.79 in 10.0 mi SE 5.8 mph - N/A   Clear
11:15 PM 64.0 °F - 17.1 °F 16% 29.79 in 10.0 mi SE 5.8 mph - N/A   Clear
11:35 PM 63.5 °F - 17.1 °F 17% 29.79 in 10.0 mi SE 3.5 mph - N/A   Clear
11:55 PM 59.7 °F - 16.0 °F 18% 29.79 in 10.0 mi Calm Calm - N/A   Clear